STARLINK-4405 (53201 NORAD) Tracking and Keplerian Element Data

This shows tracking and keplerian element data for the satellite.

Feedback or suggestion? Click here.




ElementValue
Catalog53201
NameSTARLINK-4405
Epoch Orbit1072
Epoch Day270.16600703
Epoch Year2022
RAAN329.9915
Inclination97.6538
Eccentricity0.000168
Argument of Perigee107.2453
Mean Anonmoly252.8955
Mean Motion15.01270894
Decay Rate-8.95E-06
L11 53201U 22084N 22270.16600703 -.00000895 00000+0 -65099-4 0 9999
L22 53201 97.6538 329.9915 0001680 107.2453 252.8955 15.01270894 10729

Live tracking and technical data element details for STARLINK-4405 (NORAD 53201). STARLINK-4405 can be tracked NOW for your location showing map with azimuth and elevation plus other details from your city location.

Track the satellite on the map from your city or location and see movement details for azimuth, elevation, latitude, longitude, range, height, and movement on the map or in text.







IsCatalogInMostPopularTable: catalog: 53201, numindb: 4
Update: records affected: 1



GetName: 53201 STARLINK-4405

Hit Count: updated at: Fri, 30 Sep 2022 03:20:49 GMT